Location: Orange
(40.7703°N, 74.2325°W)
Time: 08:19:42
(UTC+00:00)

Envisat - Visible Passes

Search period start: 28 November 2022 00:00
Search period end: 08 December 2022 00:00
Orbit: 763 x 765 km, 98.2° (Epoch: 27 November)

Date Brightness Start Highest point End Pass type
(mag) Time Alt. Az. Time Alt. Az. Time Alt. Az.
28 Nov 5.2 09:10:42 10° NNE 09:11:40 16° NNE 09:11:40 16° NNE visible
29 Nov 4.9 10:13:21 10° N 10:14:12 14° NNW 10:14:12 14° NNW visible
30 Nov 5.1 09:35:49 10° N 09:36:34 14° N 09:36:34 14° N visible
01 Dec 5.6 08:58:48 10° NNE 08:58:56 11° NNE 08:58:56 11° NNE visible
02 Dec 5.2 10:01:10 10° N 10:01:31 12° N 10:01:31 12° N visible
03 Dec 5.5 09:23:48 10° N 09:23:55 11° N 09:23:55 11° N visible
